FW6253 Weather Reports


Display with metric or nautical units.
time (UTC)temp
F
wind
direction
speed
MPH
gust
MPH
rain 1hr
in
rain 24hr
in
rain mn
in
humidity
%
barometer
mb
20260903101600 79 205 3.0 11.0 0.00 0.00 0.00 87 1012.6
20260903101055 79 198 5.0 12.0 0.00 0.00 0.00 88 1012.5
20260903100553 79 214 4.0 12.0 0.00 0.00 0.00 88 1012.6
20260903100104 79 202 3.0 9.0 0.00 0.00 0.00 88 1012.7
20260903095552 79 205 3.0 10.0 0.00 0.00 0.00 88 1012.7
20260903095056 79 199 3.0 10.0 0.00 0.00 0.00 88 1012.5
20260903094606 79 200 3.0 9.0 0.00 0.00 0.00 88 1012.6
20260903094053 79 208 4.0 11.0 0.00 0.00 0.00 88 1012.4
20260903093555 79 184 4.0 12.0 0.00 0.00 0.00 88 1012.5
20260903093109 79 204 5.0 12.0 0.00 0.00 0.00 88 1012.5
20260903092552 79 159 4.0 11.0 0.00 0.00 0.00 87 1012.6
20260903092052 79 203 5.0 11.0 0.00 0.00 0.00 87 1012.6
20260903091605 79 213 4.0 12.0 0.00 0.00 0.00 87 1012.5
20260903091053 80 196 4.0 13.0 0.00 0.00 0.00 87 1012.4
20260903090557 80 202 6.0 13.0 0.00 0.00 0.00 87 1012.6
20260903090058 80 198 3.0 11.0 0.00 0.00 0.00 87 1012.6
20260903085552 80 168 3.0 11.0 0.00 0.00 0.00 87 1012.7
20260903085052 80 219 3.0 10.0 0.00 0.00 0.00 87 1012.7
20260903084600 80 198 2.0 10.0 0.00 0.00 0.00 87 1012.7
20260903084053 80 174 5.0 10.0 0.00 0.00 0.00 87 1012.7
20260903083556 80 159 1.0 8.0 0.00 0.00 0.00 87 1012.7
20260903083104 80 177 2.0 8.0 0.00 0.00 0.00 87 1012.8
20260903082553 80 204 1.0 7.0 0.00 0.00 0.00 86 1012.7
20260903082052 80 186 3.0 7.0 0.00 0.00 0.00 86 1012.8
20260903081619 80 186 1.0 11.0 0.00 0.00 0.00 86 1012.8
20260903081053 80 0 2.0 11.0 0.00 0.00 0.00 86 1012.7
20260903080552 80 221 4.0 9.0 0.00 0.00 0.00 86 1012.7
20260903080109 80 157 1.0 7.0 0.00 0.00 0.00 86 1012.6
20260903075553 80 227 2.0 7.0 0.00 0.00 0.00 86 1012.7
20260903075054 80 209 2.0 7.0 0.00 0.00 0.00 85 1012.8
20260903074601 80 173 1.0 7.0 0.00 0.00 0.00 85 1012.8
20260903074054 80 158 2.0 7.0 0.00 0.00 0.00 85 1012.9
20260903073554 80 190 0.0 5.0 0.00 0.00 0.00 85 1012.8
20260903073058 80 0 0.0 5.0 0.00 0.00 0.00 84 1012.9
20260903072554 80 0 0.0 3.0 0.00 0.00 0.00 84 1012.8
20260903072054 80 0 0.0 5.0 0.00 0.00 0.00 84 1012.8
20260903071603 80 157 1.0 6.0 0.00 0.00 0.00 84 1012.7
20260903071053 80 0 0.0 6.0 0.00 0.00 0.00 83 1012.7
20260903070557 80 197 2.0 5.0 0.00 0.00 0.00 83 1012.7
20260903070100 80 184 1.0 7.0 0.00 0.00 0.00 83 1012.7
20260903065555 80 183 1.0 7.0 0.00 0.00 0.00 82 1012.7
20260903065055 81 0 1.0 7.0 0.00 0.00 0.00 82 1012.7
20260903064559 81 203 1.0 10.0 0.00 0.00 0.00 82 1013.0
20260903064054 81 0 2.0 10.0 0.00 0.00 0.00 82 1012.9
20260903063553 81 163 2.0 7.0 0.00 0.00 0.00 81 1012.9
20260903063107 81 207 3.0 8.0 0.00 0.00 0.00 81 1012.9
20260903062554 81 160 1.0 8.0 0.00 0.00 0.00 80 1012.9
20260903062059 81 172 1.0 7.0 0.00 0.00 0.00 80 1013.0
20260903061558 81 198 2.0 7.0 0.00 0.00 0.00 79 1013.0
20260903061053 82 142 1.0 9.0 0.00 0.00 0.00 79 1013.0
20260903060553 82 140 1.0 9.0 0.00 0.00 0.00 79 1013.0
20260903060108 82 145 2.0 9.0 0.00 0.00 0.00 78 1013.0
20260903055556 82 182 1.0 5.0 0.00 0.00 0.00 78 1013.0
20260903055056 82 171 0.0 8.0 0.00 0.00 0.00 78 1013.0
20260903054602 82 145 2.0 9.0 0.00 0.00 0.00 77 1013.1
20260903054054 82 158 3.0 9.0 0.00 0.00 0.00 77 1013.2
20260903053556 82 146 3.0 10.0 0.00 0.00 0.00 77 1013.2
20260903053101 83 175 4.0 10.0 0.00 0.00 0.00 77 1013.3
20260903052554 83 131 1.0 8.0 0.00 0.00 0.00 77 1013.2
20260903052051 83 128 1.0 9.0 0.00 0.00 0.00 77 1013.2
20260903051558 83 117 2.0 9.0 0.00 0.00 0.00 76 1013.0
20260903051055 83 146 3.0 9.0 0.00 0.00 0.00 76 1012.7
20260903050553 84 171 1.0 8.0 0.00 0.00 0.00 75 1012.8
20260903045554 84 156 1.0 7.0 0.00 0.00 0.00 74 1012.6
20260903045053 84 144 2.0 7.0 0.00 0.00 0.00 73 1012.6
20260903044557 84 198 2.0 8.0 0.00 0.00 0.00 73 1012.5
20260903044056 84 187 2.0 11.0 0.00 0.00 0.00 72 1012.4
20260903043553 85 180 3.0 11.0 0.00 0.00 0.00 72 1012.3
20260903043103 85 192 3.0 15.0 0.00 0.00 0.00 71 1012.3
20260903042553 85 152 4.0 16.0 0.00 0.00 0.00 71 1012.2
20260903042053 85 165 5.0 16.0 0.00 0.00 0.00 70 1012.2
20260903041601 85 176 5.0 14.0 0.00 0.00 0.00 70 1012.2
20260903041054 86 176 5.0 17.0 0.00 0.00 0.00 69 1012.3
20260903040554 86 162 6.0 17.0 0.00 0.00 0.00 69 1012.2
20260903040059 86 149 5.0 12.0 0.00 0.00 0.00 68 1012.2
20260903035552 87 150 4.0 11.0 0.00 0.00 0.00 67 1012.1
20260903035054 87 144 3.0 12.0 0.00 0.00 0.00 67 1012.1
20260903034604 87 170 4.0 12.0 0.00 0.00 0.00 66 1012.0
20260903034053 87 197 4.0 15.0 0.00 0.00 0.00 66 1012.0
20260903033553 88 165 4.0 15.0 0.00 0.00 0.00 66 1012.0
20260903033105 88 128 4.0 9.0 0.00 0.00 0.00 65 1012.0
20260903032553 88 161 2.0 13.0 0.00 0.00 0.00 65 1011.9
20260903032053 89 134 5.0 13.0 0.00 0.00 0.00 64 1011.8
20260903031558 89 137 4.0 10.0 0.00 0.00 0.00 63 1011.7
20260903031059 89 167 3.0 11.0 0.00 0.00 0.00 62 1011.6
20260903030552 89 200 4.0 11.0 0.00 0.00 0.00 61 1011.6
20260903030128 89 132 3.0 11.0 0.00 0.00 0.00 59 1011.4
20260903025555 89 153 2.0 10.0 0.00 0.00 0.00 57 1011.4
20260903025053 89 221 3.0 14.0 0.00 0.00 0.00 55 1011.3
20260903024556 89 209 5.0 14.0 0.00 0.00 0.00 54 1011.2
20260903024052 89 0 0.0 2.0 0.00 0.00 0.00 50 1011.0
20260903023557 90 0 0.0 2.0 0.00 0.00 0.00 50 1010.9
20260903023110 90 129 0.0 2.0 0.00 0.00 0.00 50 1010.9
20260903022554 90 0 0.0 2.0 0.00 0.00 0.00 50 1010.8
20260903022054 90 129 0.0 1.0 0.00 0.00 0.00 49 1010.7
20260903021602 91 0 0.0 1.0 0.00 0.00 0.00 49 1010.7
20260903021053 91 0 0.0 2.0 0.00 0.00 0.00 48 1010.4
20260903020558 91 129 0.0 2.0 0.00 0.00 0.00 48 1010.4
20260903020106 91 129 0.0 4.0 0.00 0.00 0.00 48 1010.5
20260903015554 92 0 0.0 4.0 0.00 0.00 0.00 48 1010.4
20260903015052 92 133 0.0 2.0 0.00 0.00 0.00 48 1010.3
20260903014618 92 0 0.0 2.0 0.00 0.00 0.00 48 1010.2
20260903014056 93 133 0.0 2.0 0.00 0.00 0.00 47 1010.2
20260903013553 93 0 0.0 2.0 0.00 0.00 0.00 47 1010.1
20260903013102 93 0 0.0 1.0 0.00 0.00 0.00 47 1010.2
20260902224053 101 128 1.0 6.0 0.00 0.00 0.00 36 1010.3
20260902223552 101 127 2.0 6.0 0.00 0.00 0.00 37 1010.4
20260902223100 101 161 3.0 6.0 0.00 0.00 0.00 36 1010.4
20260902222553 101 181 0.0 7.0 0.00 0.00 0.00 35 1010.4
20260902222054 101 182 3.0 7.0 0.00 0.00 0.00 36 1010.4
20260902221613 101 226 2.0 6.0 0.00 0.00 0.00 35 1010.4
20260902221052 101 174 3.0 8.0 0.00 0.00 0.00 36 1010.5
20260902220553 101 178 2.0 8.0 0.00 0.00 0.00 36 1010.6
20260902220108 101 231 2.0 7.0 0.00 0.00 0.00 37 1010.6
20260902215553 102 252 3.0 7.0 0.00 0.00 0.00 36 1010.6
20260902215055 102 273 3.0 7.0 0.00 0.00 0.00 37 1010.7
20260902214601 102 201 2.0 7.0 0.00 0.00 0.00 37 1010.7
20260902214052 102 199 2.0 7.0 0.00 0.00 0.00 39 1010.7
20260902213549 102 130 1.0 6.0 0.00 0.00 0.00 39 1010.7
20260902213059 101 231 2.0 8.0 0.00 0.00 0.00 38 1010.8
20260902212554 101 202 2.0 8.0 0.00 0.00 0.00 39 1010.8
20260902212053 101 202 4.0 8.0 0.00 0.00 0.00 39 1010.8
20260902211558 101 188 2.0 8.0 0.00 0.00 0.00 38 1010.8
20260902211055 101 188 1.0 8.0 0.00 0.00 0.00 40 1010.8
20260902210552 100 223 3.0 8.0 0.00 0.00 0.00 39 1011.0
20260902205550 101 229 4.0 9.0 0.00 0.00 0.00 40 1011.1
20260902205049 101 120 3.0 9.0 0.00 0.00 0.00 41 1011.4
20260902204616 101 164 5.0 9.0 0.00 0.00 0.00 40 1011.3
20260902204050 101 119 2.0 7.0 0.00 0.00 0.00 41 1011.4
20260902203552 100 157 2.0 7.0 0.00 0.00 0.00 42 1011.5
20260902203057 100 187 2.0 9.0 0.00 0.00 0.00 41 1011.6
20260902202557 100 0 3.0 9.0 0.00 0.00 0.00 42 1011.6
20260902202055 100 223 2.0 10.0 0.00 0.00 0.00 41 1011.8
20260902201557 100 219 5.0 10.0 0.00 0.00 0.00 41 1011.9
20260902201052 101 61 1.0 9.0 0.00 0.00 0.00 41 1011.9
20260902200549 100 182 3.0 9.0 0.00 0.00 0.00 40 1012.1
20260902200100 100 128 2.0 7.0 0.00 0.00 0.00 41 1012.3
20260902195553 99 159 2.0 10.0 0.00 0.00 0.00 43 1012.4
20260902195049 99 134 3.0 10.0 0.00 0.00 0.00 43 1012.4
20260902194622 99 279 3.0 7.0 0.00 0.00 0.00 42 1012.5
20260902194055 99 200 3.0 8.0 0.00 0.00 0.00 43 1012.5
20260902193549 98 0 2.0 8.0 0.00 0.00 0.00 43 1012.7
20260902193105 98 265 3.0 8.0 0.00 0.00 0.00 43 1012.7
20260902192549 98 75 1.0 8.0 0.00 0.00 0.00 45 1012.7
20260902192049 97 138 2.0 8.0 0.00 0.00 0.00 47 1012.8
20260902191608 97 154 2.0 6.0 0.00 0.00 0.00 47 1013.0
20260902191049 97 0 1.0 8.0 0.00 0.00 0.00 47 1013.0
20260902190556 97 0 3.0 9.0 0.00 0.00 0.00 46 1013.2
20260902185555 97 240 3.0 10.0 0.00 0.00 0.00 45 1013.3
20260902185055 97 298 4.0 10.0 0.00 0.00 0.00 46 1013.3
20260902184658 97 227 2.0 9.0 0.00 0.00 0.00 46 1013.4
20260902184054 97 115 3.0 9.0 0.00 0.00 0.00 46 1013.5
20260902183555 97 173 4.0 10.0 0.00 0.00 0.00 49 1013.6
20260902183139 96 0 4.0 10.0 0.00 0.00 0.00 50 1013.7
20260902182556 96 316 2.0 8.0 0.00 0.00 0.00 49 1013.8
20260902182054 95 200 3.0 7.0 0.00 0.00 0.00 49 1013.8
20260902181611 95 209 3.0 8.0 0.00 0.00 0.00 50 1013.9
20260902181055 94 208 3.0 8.0 0.00 0.00 0.00 49 1014.0
20260902180554 94 238 4.0 8.0 0.00 0.00 0.00 52 1014.1
20260902180106 94 239 2.0 11.0 0.00 0.00 0.00 53 1014.2
20260902175555 94 244 5.0 11.0 0.00 0.00 0.00 53 1014.2
20260902175057 94 223 2.0 10.0 0.00 0.00 0.00 52 1014.4
20260902174558 94 231 4.0 10.0 0.00 0.00 0.00 53 1014.4
20260902174055 94 184 2.0 7.0 0.00 0.00 0.00 53 1014.5
20260902173554 93 207 2.0 8.0 0.00 0.00 0.00 53 1014.5
20260902173103 93 163 3.0 10.0 0.00 0.00 0.00 53 1014.6
20260902172554 93 178 3.0 10.0 0.00 0.00 0.00 56 1014.7
20260902172058 93 280 3.0 8.0 0.00 0.00 0.00 56 1014.7
20260902171626 93 194 3.0 6.0 0.00 0.00 0.00 58 1014.8
20260902171055 93 0 2.0 6.0 0.00 0.00 0.00 61 1014.9
20260902170556 92 194 1.0 10.0 0.00 0.00 0.00 62 1014.9
20260902170103 91 113 2.0 10.0 0.00 0.00 0.00 62 1015.0
20260902165554 91 202 4.0 10.0 0.00 0.00 0.00 62 1015.1
20260902165054 91 193 2.0 9.0 0.00 0.00 0.00 62 1015.1
20260902164622 90 225 4.0 8.0 0.00 0.00 0.00 63 1015.1
20260902164054 90 215 1.0 8.0 0.00 0.00 0.00 64 1015.1
20260902163554 90 174 2.0 8.0 0.00 0.00 0.00 65 1015.1
20260902163101 89 204 3.0 8.0 0.00 0.00 0.00 65 1015.1
20260902162554 89 170 3.0 9.0 0.00 0.00 0.00 65 1015.1
20260902162054 88 190 4.0 9.0 0.00 0.00 0.00 67 1015.2
20260902161603 88 155 3.0 10.0 0.00 0.00 0.00 68 1015.2
20260902161055 87 259 4.0 11.0 0.00 0.00 0.00 68 1015.2
20260902160554 87 234 6.0 11.0 0.00 0.00 0.00 69 1015.2
20260902160105 87 200 3.0 11.0 0.00 0.00 0.00 70 1015.2
20260902155555 86 234 4.0 9.0 0.00 0.00 0.00 70 1015.2
20260902155053 86 277 4.0 11.0 0.00 0.00 0.00 72 1015.3
20260902154606 86 263 4.0 11.0 0.00 0.00 0.00 72 1015.3
20260902154058 85 229 4.0 10.0 0.00 0.00 0.00 74 1015.3
20260902153554 85 249 4.0 9.0 0.00 0.00 0.00 73 1015.2
20260902153102 85 219 5.0 9.0 0.00 0.00 0.00 75 1015.2
20260902152555 84 196 3.0 10.0 0.00 0.00 0.00 77 1015.2
20260902152054 84 229 3.0 10.0 0.00 0.00 0.00 78 1015.2
20260902151603 84 251 5.0 10.0 0.00 0.00 0.00 78 1015.2
20260902151054 83 228 4.0 8.0 0.00 0.00 0.00 79 1015.3
20260902150554 83 243 3.0 9.0 0.00 0.00 0.00 80 1015.3
20260902150105 83 314 3.0 9.0 0.00 0.00 0.00 81 1015.4
20260902145554 82 240 4.0 10.0 0.00 0.00 0.00 82 1015.4
20260902145054 82 234 5.0 11.0 0.00 0.00 0.00 82 1015.4
20260902144609 81 211 6.0 11.0 0.00 0.00 0.00 83 1015.4
20260902144054 81 198 3.0 9.0 0.00 0.00 0.00 85 1015.4
20260902143555 81 221 4.0 10.0 0.00 0.00 0.00 86 1015.3
20260902143104 80 225 3.0 12.0 0.00 0.00 0.00 87 1015.4
20260902142554 80 203 4.0 12.0 0.00 0.00 0.00 87 1015.4
20260902142054 80 204 4.0 8.0 0.00 0.00 0.00 88 1015.3
20260902141558 80 261 2.0 9.0 0.00 0.00 0.00 89 1015.3
20260902141054 79 220 4.0 9.0 0.00 0.00 0.00 89 1015.4
20260902140621 79 240 5.0 9.0 0.00 0.00 0.00 90 1015.4
20260902135549 78 236 3.0 7.0 0.00 0.00 0.00 90 1015.3
20260902135052 78 202 3.0 7.0 0.00 0.00 0.00 91 1015.3
20260902134606 78 248 2.0 7.0 0.00 0.00 0.00 91 1015.2
20260902134049 78 240 3.0 7.0 0.00 0.00 0.00 91 1015.2
20260902133749 78 236 3.0 7.0 0.00 0.00 0.00 91 1015.1
20260902133103 77 227 3.0 7.0 0.00 0.00 0.00 91 1015.1
20260902132646 77 215 3.0 6.0 0.00 0.00 0.00 91 1015.2
20260902132054 77 202 2.0 6.0 0.00 0.00 0.00 91 1015.2
20260902131613 77 227 3.0 6.0 0.00 0.00 0.00 91 1015.1
20260902131054 77 219 2.0 6.0 0.00 0.00 0.00 91 1015.1
20260902130554 77 209 3.0 6.0 0.00 0.00 0.00 91 1015.0
20260902130112 76 214 2.0 6.0 0.00 0.00 0.00 91 1014.9
20260902125554 76 213 2.0 4.0 0.00 0.00 0.00 91 1014.9
20260902125057 76 214 2.0 4.0 0.00 0.00 0.00 91 1014.9
20260902124600 76 215 0.0 2.0 0.00 0.00 0.00 91 1014.9
20260902124052 76 0 0.0 3.0 0.00 0.00 0.00 91 1014.7
20260902123557 76 0 1.0 3.0 0.00 0.00 0.00 91 1014.6
20260902123106 76 215 1.0 3.0 0.00 0.00 0.00 91 1014.6
20260902122553 76 215 1.0 3.0 0.00 0.00 0.00 91 1014.6
20260902122052 76 214 1.0 4.0 0.00 0.00 0.00 90 1014.5
20260902121604 76 214 1.0 4.0 0.00 0.00 0.00 90 1014.4
20260902121054 76 214 2.0 4.0 0.00 0.00 0.00 90 1014.3
20260902120554 76 215 2.0 4.0 0.00 0.00 0.00 90 1014.4
20260902115555 76 217 0.0 2.0 0.00 0.00 0.00 89 1014.4
20260902115053 76 0 0.0 0.0 0.00 0.00 0.00 89 1014.3
20260902114620 76 0 0.0 0.0 0.00 0.00 0.00 89 1014.2
20260902114053 76 0 0.0 2.0 0.00 0.00 0.00 89 1014.3
20260902113552 76 0 0.0 3.0 0.00 0.00 0.00 89 1014.3
20260902113100 76 217 0.0 3.0 0.00 0.00 0.00 89 1014.3
20260902112552 76 217 1.0 3.0 0.00 0.00 0.00 88 1014.2
20260902112053 76 217 1.0 3.0 0.00 0.00 0.00 88 1014.1
20260902111603 76 217 1.0 4.0 0.00 0.00 0.00 88 1014.1
20260902111053 76 217 2.0 5.0 0.00 0.00 0.00 88 1014.1
20260902110552 76 217 2.0 5.0 0.00 0.00 0.00 88 1014.2
20260902110108 76 217 2.0 6.0 0.00 0.00 0.00 87 1014.1
20260902105552 76 216 2.0 6.0 0.00 0.00 0.00 87 1014.1
20260902105052 76 215 1.0 5.0 0.00 0.00 0.00 87 1014.0
20260902104601 76 214 3.0 5.0 0.00 0.00 0.00 87 1014.0
20260902104052 76 208 3.0 5.0 0.00 0.00 0.00 86 1014.1
20260902103552 76 205 2.0 4.0 0.00 0.00 0.00 85 1014.1
20260902103108 76 206 0.0 3.0 0.00 0.00 0.00 85 1014.1
20260902102552 76 0 0.0 3.0 0.00 0.00 0.00 85 1014.3
20260902102052 76 0 0.0 3.0 0.00 0.00 0.00 84 1014.2